User: anonymous   Login
Location: Moscow
(55.7500°N, 37.5830°E)
Time: 21:32:16
(UTC+03:00)
Language:

A-11 Canister half - Orbit

View from above orbital plane
View from above orbital plane
View from above satellite
View from above satellite

Ground track
Ground track

The orbit data is extracted from the following two-line orbital elements,

1    51U 60009C   21333.78237152  .00000016  00000-0  97444-3 0  9996
2    51  47.2100 146.7157 0104956 300.0893  58.9523 12.18272659728733
Epoch (UTC): 29 November 2021 18:46:36
Eccentricity: 0.0104956
inclination: 47.2100°
perigee height: 1516 km
apogee height: 1684 km
right ascension of ascending node: 146.7157°
argument of perigee: 300.0893°
revolutions per day: 12.18272659
mean anomaly at epoch: 58.9523°
orbit number at epoch: 72873

The dashed part of the orbit path shows where the satellite is in the earth's shadow,  

DLR